Regional Weather Roundup
Issued by NWS Jackson, KY

Home | Current Version | Previous Version | Graphics & Text | Print | Product List | Glossary On
Versions: 1 2 3 4 5 6 7 8 9 10 11 12 13 14 15 16 17 18 19 20 21 22 23 24 25 26 27 28 29 30 31 32 33 34 35 36 37 38 39 40 41 42 43 44 45 46 47 48 49 50
000
ASUS43 KJKL 291810
RWRJKL

EAST KENTUCKY HOURLY WEATHER ROUNDUP
NATIONAL WEATHER SERVICE JACKSON KY
200 PM EDT MON JUN 29 2015

NOTE: "FAIR" INDICATES FEW OR NO CLOUDS BELOW 12,000 FEET WITH
NO SIGNIFICANT WEATHER AND/OR OBSTRUCTIONS TO VISIBILITY.

* THESE REPORTS ARE NOT UNDER NWS QUALITY CONTROL AND MAY NOT
  REPORT WEATHER SUCH AS PRECIPITATION AND FOG.

KYZ079-080-083-085-087-088-110-112-115-119-120-291900
...EASTERN KENTUCKY...

CITY           SKY/WX    TMP DP  RH WIND       PRES   REMARKS
JACKSON        MOSUNNY   77  62  59 MISG      29.92F
6HR MIN TEMP:  60; 6HR MAX TEMP:  78;

LONDON         PTSUNNY   80  60  50 SW14G23   29.92F
6HR MIN TEMP:  61; 6HR MAX TEMP:  80; 6HR PCP: TRACE;

SOMERSET*      SUNNY     79  64  61 W18G25    29.91F
MONTICELLO*    SUNNY     82  68  62 SW16G24   29.93F
6HR MIN TEMP:  66; 6HR MAX TEMP:  82;

MIDDLESBORO*   SUNNY     76  60  57 S9        29.97F
6HR MIN TEMP:  56; 6HR MAX TEMP:  77;

HARLAN APT*      N/A     77  55  47 SW3       29.97F
HAZARD APT*    MOCLDY    79  61  53 SW12G21   29.92F
BLACK MTN*       N/A     63  57  82 S7          N/A
PIKEVILLE APT* PTSUNNY   75  61  60 S6        29.94F
BIG SANDY*     CLOUDY    79  62  55 SW7G18    29.92F
6HR MIN TEMP:  63; 6HR MAX TEMP:  79;

MOREHEAD APT*  MOCLDY    75  63  64 SW9G18    29.89S
$$

KYZ035-036-041-042-044-050-067-078-099-291900
...CENTRAL KENTUCKY...

CITY           SKY/WX    TMP DP  RH WIND       PRES   REMARKS
MT STERLING*   PTSUNNY   79  64  61 W12G21    29.87F
FLEMING/MASON* CLOUDY    77  66  69 SW8G16    29.85F
DANVILLE*      MOSUNNY   81  64  57 SW15      29.88F
RICHMOND*      MOSUNNY   79  63  57 SW15G22   29.88S
LEXINGTON      PTSUNNY   79  66  64 S17       29.85S
6HR MIN TEMP:  63; 6HR MAX TEMP:  80; 6HR PCP: TRACE;

FRANKFORT      PTSUNNY   80  66  62 SW16      29.82F
6HR MIN TEMP:  64; 6HR MAX TEMP:  80; 6HR PCP:  0.08;

$$

KYZ091>093-OHZ055-061-077-WVZ005-015-034-035-042-291900
...SOUTHERN OHIO/WEST VIRGINIA...

CITY           SKY/WX    TMP DP  RH WIND       PRES   REMARKS
COVINGTON      MOSUNNY   74  67  78 SW7       29.83S
COLUMBUS       RAIN      62  60  93 SE13G18   29.87F FOG
DAYTON         CLOUDY    63  61  93 SE8       29.84F FOG
WILMINGTON     LGT RAIN  64  60  87 S12       29.85S
HUNTINGTON     PTSUNNY   71  64  78 SE9       29.88F
CHARLESTON     CLOUDY    74  57  55 SE3       29.92F
PINEVILLE*     PTSUNNY   77  58  52 MISG      30.02F
BECKLEY        PTSUNNY   73  52  47 SW9       30.01F
BLUEFIELD      MOSUNNY   77  51  40 W10G20    30.04F
$$

VAZ002-007-008-TNZ017-027-036-066-071-291900
...SOUTHWEST VIRGINIA/EAST TENNESSEE...

CITY           SKY/WX    TMP DP  RH WIND       PRES   REMARKS
WISE*          CLOUDY    72  55  56 S12G20    30.04S
JONESVILLE*      N/A    N/A N/A N/A MISG        N/A
ABINGDON*      CLOUDY    75  54  47 SW9       30.02F
BRISTOL        PTSUNNY   79  56  45 W9        29.99F
KNOXVILLE      CLOUDY    80  61  52 SW17G23   29.97F
OAK RIDGE      MOSUNNY   82  61  48 VRB6G20   29.98F
CROSSVILLE     CLOUDY    77  63  61 SW8G20    30.00F
NASHVILLE      MOSUNNY   84  67  56 SW13G22   29.91F
$$

...KEY TO REMARKS...
VSB - VISIBILITY IN MILES
WCI - WIND CHILL INDEX
HX  - HEAT INDEX

$$



USA.gov is the U.S. government's official web portal to all federal, state and local government web resources and services.